Location: Izdebno
(52.6670°N, 16.2170°E)
Time: 19:08:02
(UTC+02:00)

Transit 4A - Pass Details

Date: 23 February 2024
Orbit: 871 x 972 km, 66.8° (Epoch: 21 April)

Event Time Altitude Azimuth Distance (km) Brightness Sun altitude
Rises 06:25:57 0° 299° (WNW) 3,555 - -5.3°
Exits shadow 06:27:00 - 304° (WNW) 3,222 10.1 -5.2°
Reaches altitude 10° 06:29:10 10° 316° (NW) 2,594 9.8 -4.9°
Maximum altitude 06:33:37 21° 4° (N) 1,908 9.5 -4.2°
Drops below altitude 10° 06:38:00 10° 52° (NE) 2,550 10.8 -3.5°
Sets 06:41:08 0° 69° (ENE) 3,478 12.0 -3.1°
